Content
SEND FEEDBACK

Daily
Averages
Monthly
Summary
United States of America

COLUMBIA, VIRGINIA


Home > North America > United States > Virginia
Elevation: 89 meters     Latitude: 37 42N     Longitude: 078 18W

WEATHER
 
SELECT A DAY
Number of Records: 79,670;   Date Range: 2/1/11 - 9/22/14
 
SHARE

PRINT THIS DATA

[ ← Previous Day ]
WEATHER ALMANAC - 2 JULY, 2014
[ Next Day → ]
[ °F ]   °C
Weather ElementAverageHighLow
Temperature29.3 °C36 °C (2:15 pm) (11:35 am)
Dewpoint19.9 °C23 °C (8:35 am) (7:00 pm)
Humidity58.7 %83 % (1:55 am)34 % (4:35 pm)
Barometer1012.2 hPa1013.9 hPa (10:35 pm)1010.8 hPa (5:35 pm)
Wind Speed10.3 km/h25.9 km/h (1:35 pm)
Wind Gust33.3 km/h (1:35 pm)
Weather ElementAverage
Visibility13.8 km
Wind DirectionSSW (192.2 °)

Weather ElementTotal
Precipitation---
Heating Degree Days9.2 (Base 18.3)
Averaged from 49 records on 2 July, 2014
WEATHER CONDITIONS BREAKOUT
WIND DIRECTION BREAKOUT
WEATHER BY HOUR - 2 JULY, 2014
[ °F ]   °C
Local TimeTemperatureDewpointHumidityBarometerVisibilityWind DirectionWind SpeedGust SpeedPrecipitationEventsConditions
12:35 AM25 °C21 °C78 %1012.2 hPa16.1 kmSouth (190°)5.6 km/hClear
1:15 AM25 °C21 °C78 %1012.5 hPa16.1 kmSSW (210°)7.4 km/hClear
1:35 AM26 °C21 °C74 %1012.5 hPa16.1 kmSSW (210°)9.3 km/hClear
1:55 AM24 °C21 °C83 %1012.2 hPa16.1 kmSSW (200°)7.4 km/hClear
2:15 AM24 °C21 °C83 %1012.2 hPa16.1 kmSSW (200°)7.4 km/hClear
2:35 AM24 °C21 °C83 %1011.9 hPa16.1 kmSouth (190°)9.3 km/hClear
2:55 AM24 °C21 °C83 %1011.9 hPa16.1 kmSSW (200°)9.3 km/hClear
3:15 AM24 °C21 °C83 %1011.9 hPa16.1 kmSSW (200°)11.1 km/hClear
3:35 AM24 °C21 °C83 %1011.9 hPa16.1 kmSSW (200°)9.3 km/hClear
3:55 AM24 °C21 °C83 %1011.9 hPa16.1 kmSSW (200°)7.4 km/hClear
4:15 AM24 °C21 °C83 %1011.5 hPa16.1 kmSSW (200°)9.3 km/hClear
4:35 AM24 °C21 °C83 %1011.9 hPa16.1 kmSSW (200°)9.3 km/hClear
8:15 AM27 °C22 °C74 %1012.2 hPa16.1 kmSSW (200°)11.1 km/h
8:35 AM28 °C23 °C74 %1012.5 hPa16.1 kmSSW (210°)13 km/hClear
11:35 AM-17.8 °C-17.8 °C1012.9 hPaSouth (190°)18.5 km/h
11:55 AM33 °C22 °C52 %1012.5 hPa11.3 kmSSW (210°)11.1 km/hClear
12:15 PM33 °C22 °C52 %1012.9 hPa11.3 kmSW (220°)13 km/hClear
12:35 PM34 °C21 °C46 %1012.9 hPa11.3 kmSW (220°)9.3 km/h14.8 km/hClear
12:55 PM34 °C20 °C44 %1012.9 hPa11.3 kmSSW (210°)11.1 km/h25.9 km/hClear
1:15 PM34 °C20 °C44 %1012.5 hPa11.3 kmWSW (250°)14.8 km/hClear
1:35 PM34 °C20 °C44 %1012.5 hPa11.3 kmSouth (190°)25.9 km/h33.3 km/hScattered Clouds
1:55 PM35 °C20 °C41 %1012.2 hPa11.3 kmSouth (180°)11.1 km/hScattered Clouds
2:15 PM36 °C21 °C41 %1012.2 hPa11.3 kmSW (220°)11.1 km/hScattered Clouds
2:35 PM35 °C21 °C44 %1011.9 hPa11.3 kmSSW (200°)18.5 km/h25.9 km/hScattered Clouds
2:55 PM36 °C21 °C41 %1011.9 hPa11.3 kmSW (220°)16.7 km/hScattered Clouds
3:15 PM36 °C20 °C39 %1011.5 hPa11.3 kmSW (220°)14.8 km/hScattered Clouds
3:35 PM36 °C20 °C39 %1011.5 hPa11.3 kmSSW (210°)14.8 km/h25.9 km/hScattered Clouds
3:55 PM36 °C19 °C37 %1011.5 hPa11.3 kmSSW (200°)16.7 km/hScattered Clouds
4:15 PM36 °C19 °C37 %1011.2 hPa11.3 kmSW (230°)14.8 km/h25.9 km/hClear
4:35 PM36 °C18 °C34 %1011.2 hPa11.3 kmSSW (210°)18.5 km/hClear
4:55 PM36 °C18 °C34 %1011.2 hPa11.3 kmSW (220°)13 km/hClear
5:15 PM36 °C18 °C34 %1011.2 hPa11.3 kmSSW (210°)11.1 km/hClear
5:35 PM36 °C20 °C39 %1010.8 hPa11.3 kmSSW (200°)16.7 km/hScattered Clouds
6:55 PM34 °C22 °C49 %1010.8 hPa16.1 kmSouth (180°)16.7 km/hClear
7:15 PM33 °C22 °C52 %1011.5 hPa11.3 kmSSW (200°)13 km/hClear
7:35 PM33 °C22 °C52 %1011.5 hPa11.3 kmSSW (200°)11.1 km/hClear
7:55 PM32 °C22 °C55 %1011.5 hPa11.3 kmSSW (210°)9.3 km/hClear
8:15 PM31 °C22 °C58 %1011.5 hPa11.3 kmSouth (190°)7.4 km/hClear
8:35 PM30 °C22 °C62 %1011.5 hPa11.3 kmSouth (190°)5.6 km/hClear
8:55 PM30 °C22 °C62 %1011.9 hPa16.1 kmCalmScattered Clouds
9:15 PM30 °C22 °C62 %1012.2 hPa16.1 kmSSW (200°)9.3 km/hMostly Cloudy
9:35 PM29 °C22 °C66 %1012.2 hPa16.1 kmSSW (200°)7.4 km/hScattered Clouds
9:55 PM29 °C22 °C66 %1012.5 hPa16.1 kmNorth (360°)5.6 km/hThunderstormMostly Cloudy
10:15 PM29 °C21 °C62 %1013.2 hPa16.1 kmNorth (350°)5.6 km/hThunderstormThunderstorm
10:35 PM29 °C20 °C58 %1013.9 hPa16.1 kmNW (320°)5.6 km/hMostly Cloudy
10:55 PM28 °C19 °C58 %1013.9 hPa16.1 kmCalmMostly Cloudy
11:15 PM27 °C19 °C61 %1013.5 hPa16.1 kmCalmScattered Clouds
11:35 PM27 °C19 °C61 %1013.5 hPa16.1 kmCalmMostly Cloudy
11:55 PM26 °C19 °C65 %1013.9 hPa16.1 kmCalmMostly Cloudy
Hourly data recorded from KFVX, located 0 kilometers away from Columbia, Virginia







STORIES FROM OUR PARTNERS